Montpelier, VT

10:10 PM EDT on April 30, 2017 (GMT -0400)
Knapp State

Weather History for KMPV - October, 2014

Change the Weather History Date:

Thursday, October 16, 2014

  Actual Average Record
Temperature  
Mean Temperature 64 °F 46 °F  
Max Temperature 71 °F 56 °F 81 °F (1956)
Min Temperature 57 °F 35 °F 22 °F (1950)
Degree Days  
Heating Degree Days 1 20  
Month to date heating degree days 196 270  
Since 1 July heating degree days 580 625  
Cooling Degree Days 0 0  
Month to date cooling degree days 2 0  
Year to date cooling degree days 188 263  
Growing Degree Days 16 (Base 50)    
Moisture  
Dew Point 64 °F    
Average Humidity 94    
Maximum Humidity 100    
Minimum Humidity 87    
Precipitation  
Precipitation 0.82 in 0.11 in 0.82 in (2002)
Month to date precipitation 2.29 1.88  
Year to date precipitation 28.93 29.80  
Sea Level Pressure  
Sea Level Pressure 29.84 in    
Wind  
Wind Speed 8 mph (SE)    
Max Wind Speed 18 mph    
Max Gust Speed 22 mph    
Visibility 7 miles    
Events Rain    
T = Trace of Precipitation, MM = Missing Value Source: NWS Daily Summary

Daily Weather History Graph

Daily Weather History Graph

Search for Another Location

Airport or City:

Trip Planner

Search our weather history database for the weather conditions in past years. The results will help you decide how hot, cold, wet, or windy it might be!

Date:

Astronomy

Oct. 16, 2014 Rise Set
Actual Time 7:06 AM EDT 6:04 PM EDT
Civil Twilight 6:37 AM EDT 6:33 PM EDT
Nautical Twilight 6:03 AM EDT 7:07 PM EDT
Astronomical Twilight 5:29 AM EDT 7:40 PM EDT
Moon 12:00 AM EDT (10/16) 2:26 PM EDT (10/16)
Length of Visible Light 11h 56m
Length of Day
10h 58m
Last Quarter, 42% of the Moon is Illuminated
Oct 16
Last Quarter
Oct 23
New
Oct 30
First Quarter
Nov 6
Full
Nov 14
Last Quarter

Hourly Weather History & Observations

Time (EDT) Temp. Dew Point Humidity Pressure Visibility Wind Dir Wind Speed Gust Speed Precip Events Conditions
12:51 AM 66.9 °F 63.0 °F 87% 29.95 in 10.0 mi SSE 5.8 mph - N/A   Overcast
1:32 AM 66.9 °F 63.0 °F 87% 29.96 in 10.0 mi SSE 6.9 mph - N/A   Overcast
1:51 AM 66.9 °F 63.0 °F 87% 29.95 in 10.0 mi SSE 10.4 mph - N/A   Overcast
1:58 AM 66.9 °F 63.0 °F 87% 29.95 in 10.0 mi SSE 6.9 mph - N/A   Overcast
2:51 AM 66.9 °F 64.0 °F 90% 29.93 in 10.0 mi South 13.8 mph - N/A   Overcast
3:00 AM 66.9 °F 64.0 °F 90% 29.93 in 10.0 mi South 9.2 mph - N/A   Overcast
3:16 AM 66.9 °F 64.0 °F 90% 29.93 in 10.0 mi South 9.2 mph - N/A   Overcast
3:51 AM 66.0 °F 64.0 °F 93% 29.91 in 9.0 mi South 8.1 mph - 0.00 in Rain Light Rain
4:44 AM 66.0 °F 64.0 °F 93% 29.91 in 10.0 mi South 3.5 mph - 0.00 in   Overcast
4:51 AM 64.9 °F 64.0 °F 97% 29.91 in 10.0 mi SSE 5.8 mph - 0.00 in   Overcast
5:33 AM 66.0 °F 64.0 °F 93% 29.91 in 10.0 mi SSE 6.9 mph - 0.02 in Rain Light Rain
5:51 AM 66.0 °F 64.0 °F 93% 29.90 in 10.0 mi SE 4.6 mph - 0.02 in Rain Light Rain
6:42 AM 66.0 °F 64.0 °F 93% 29.91 in 4.0 mi SE 5.8 mph - 0.09 in Rain Rain
6:51 AM 66.0 °F 64.0 °F 93% 29.90 in 5.0 mi SE 5.8 mph - 0.11 in Rain Rain
7:31 AM 64.9 °F 64.0 °F 97% 29.91 in 6.0 mi SE 3.5 mph - 0.09 in Rain Rain
7:51 AM 64.9 °F 64.0 °F 97% 29.90 in 4.0 mi ESE 3.5 mph - 0.16 in Rain Rain
7:58 AM 64.9 °F 64.0 °F 97% 29.90 in 4.0 mi SE 3.5 mph - 0.02 in Rain Rain
8:28 AM 66.0 °F 64.0 °F 93% 29.90 in 10.0 mi SSE 4.6 mph - 0.03 in Rain Light Rain
8:51 AM 66.2 °F 64.4 °F 94% 29.90 in 8.0 mi SE 5.8 mph - N/A   Overcast
9:02 AM 66.0 °F 64.0 °F 93% 29.89 in 1.8 mi SE 4.6 mph - 0.05 in Rain Heavy Rain
9:12 AM 66.0 °F 64.9 °F 96% 29.89 in 2.0 mi SE 5.8 mph - 0.09 in Rain Rain
9:20 AM 66.0 °F 64.9 °F 96% 29.89 in 5.0 mi SE 5.8 mph - 0.09 in Rain Light Rain
9:37 AM 66.0 °F 64.9 °F 96% 29.89 in 2.5 mi ESE 5.8 mph - 0.10 in Rain Light Rain
9:48 AM 66.2 °F 64.4 °F 94% 29.89 in 6.0 mi ESE 5.8 mph - 0.11 in Rain Light Rain
9:51 AM 66.0 °F 64.9 °F 96% 29.88 in 8.0 mi ESE 5.8 mph - 0.11 in Rain Light Rain
10:23 AM 66.0 °F 64.9 °F 96% 29.87 in 1.8 mi ESE 6.9 mph - 0.07 in Rain Heavy Rain
10:32 AM 66.0 °F 64.9 °F 96% 29.87 in 2.5 mi ESE 6.9 mph - 0.09 in Rain Rain
10:39 AM 66.0 °F 64.9 °F 96% 29.87 in 7.0 mi ESE 6.9 mph - 0.09 in Rain Light Rain
10:49 AM 66.2 °F 64.4 °F 94% 29.87 in 7.0 mi ESE 5.8 mph - 0.10 in Rain Light Rain
10:51 AM 66.9 °F 64.9 °F 93% 29.86 in 7.0 mi ESE 3.5 mph - 0.10 in Rain Light Rain
11:51 AM 68.0 °F 66.0 °F 93% 29.84 in 10.0 mi SE 5.8 mph - 0.03 in Rain Light Rain
12:31 PM 69.1 °F 66.0 °F 90% 29.84 in 10.0 mi SE 8.1 mph - 0.01 in   Overcast
12:51 PM 70.0 °F 66.0 °F 87% 29.82 in 10.0 mi SSE 11.5 mph - 0.01 in   Overcast
1:46 PM 68.0 °F 66.2 °F 94% 29.81 in 2.0 mi SSE 8.1 mph - 0.03 in Rain Light Rain
1:51 PM 68.0 °F 66.0 °F 93% 29.79 in 4.0 mi SSE 10.4 mph - 0.03 in Rain Light Rain
2:31 PM 68.0 °F 64.9 °F 90% 29.79 in 5.0 mi SSE 11.5 mph - 0.02 in Rain Light Rain
2:51 PM 66.9 °F 64.9 °F 93% 29.77 in 7.0 mi SE 10.4 mph - 0.03 in Rain Light Rain
3:51 PM 66.0 °F 64.0 °F 93% 29.76 in 9.0 mi SE 9.2 mph - 0.04 in Rain Light Rain
4:51 PM 66.0 °F 63.0 °F 90% 29.73 in 10.0 mi SE 5.8 mph - 0.00 in   Clear
5:51 PM 64.9 °F 62.1 °F 90% 29.71 in 10.0 mi SE 10.4 mph - N/A   Partly Cloudy
6:35 PM 66.0 °F 62.1 °F 87% 29.72 in 10.0 mi SSE 12.7 mph - N/A   Mostly Cloudy
6:51 PM 66.0 °F 63.0 °F 90% 29.70 in 10.0 mi SE 9.2 mph - N/A   Overcast
7:02 PM 66.0 °F 63.0 °F 90% 29.71 in 10.0 mi SE 8.1 mph - N/A   Overcast
7:29 PM 64.9 °F 63.0 °F 93% 29.70 in 4.0 mi ESE 6.9 mph - 0.03 in Rain Rain
7:51 PM 64.9 °F 63.0 °F 93% 29.69 in 10.0 mi Variable 4.6 mph - 0.03 in   Overcast
8:03 PM 64.9 °F 63.0 °F 93% 29.71 in 1.8 mi SW 8.1 mph 17.3 mph 0.10 in Rain Heavy Rain
8:09 PM 64.9 °F 63.0 °F 93% 29.71 in 3.0 mi South 15.0 mph 20.7 mph 0.10 in Rain Light Rain
8:51 PM 63.0 °F 61.0 °F 93% 29.71 in 10.0 mi South 9.2 mph - 0.11 in   Overcast
9:26 PM 63.0 °F 60.1 °F 90% 29.71 in 10.0 mi SSE 11.5 mph 18.4 mph N/A   Overcast
9:51 PM 62.1 °F 60.1 °F 93% 29.69 in 10.0 mi South 8.1 mph - 0.00 in Rain Light Rain
10:51 PM 61.0 °F 57.0 °F 87% 29.70 in 10.0 mi South 9.2 mph - 0.00 in   Mostly Cloudy
11:51 PM 59.0 °F 57.0 °F 93% 29.69 in 10.0 mi South 11.5 mph - N/A   Clear